• In Kazakhstan
  • List of Countries
  • For 7 days
  • Water Temperature
  • Satellite Maps
  • Weather Map
  • News
  • Weather Widgets
  • user-avatar
    Login

    Hourly Weather Varadero

    Today, 21 November, Tuesday

    Time Temperature Precipitation Wind Pressure Humidity
    00:00 +22°C° 0 mm 3 mps 760 mmHg 81%
    01:00 +22°C° 0 mm 3 mps 760 mmHg 83%
    02:00 +22°C° 0 mm 3 mps 760 mmHg 84%
    03:00 +22°C° 0 mm 3 mps 760 mmHg 85%
    04:00 +22°C° 0 mm 3 mps 759 mmHg 87%
    05:00 +23°C° 0 mm 2 mps 759 mmHg 88%
    06:00 +23°C° 0 mm 2 mps 760 mmHg 88%
    07:00 +23°C° 0 mm 2 mps 760 mmHg 89%
    08:00 +25°C° 0.1 mm 2 mps 760 mmHg 82%
    09:00 +27°C° 0.1 mm 2 mps 760 mmHg 74%
    10:00 +29°C° 0.1 mm 2 mps 761 mmHg 67%
    11:00 +30°C° 0 mm 2 mps 760 mmHg 62%
    12:00 +31°C° 0 mm 2 mps 760 mmHg 57%
    13:00 +32°C° 0 mm 2 mps 759 mmHg 52%
    14:00 +31°C° 0 mm 3 mps 759 mmHg 54%
    15:00 +31°C° 0 mm 3 mps 758 mmHg 56%
    16:00 +30°C° 0 mm 3 mps 758 mmHg 58%
    17:00 +29°C° 0 mm 3 mps 758 mmHg 67%
    18:00 +27°C° 0 mm 3 mps 758 mmHg 75%
    19:00 +26°C° 0 mm 3 mps 759 mmHg 83%
    20:00 +25°C° 0.1 mm 3 mps 759 mmHg 85%
    21:00 +25°C° 0.1 mm 3 mps 759 mmHg 87%
    22:00 +25°C° 0.1 mm 3 mps 759 mmHg 89%
    23:00 +25°C° 0 mm 3 mps 759 mmHg 89%

    Tomorrow, 22 November, Wednesday

    Time Temperature Precipitation Wind Pressure Humidity
    00:00 +24°C° 0 mm 3 mps 759 mmHg 90%
    01:00 +24°C° 0 mm 2 mps 759 mmHg 90%
    02:00 +24°C° 0 mm 2 mps 759 mmHg 91%
    03:00 +24°C° 0 mm 2 mps 758 mmHg 91%
    04:00 +23°C° 0 mm 1 mps 758 mmHg 92%
    05:00 +23°C° 0 mm 1 mps 758 mmHg 92%
    06:00 +23°C° 0 mm 1 mps 758 mmHg 91%
    07:00 +23°C° 0 mm 1 mps 759 mmHg 91%
    08:00 +25°C° 0 mm 1 mps 759 mmHg 82%
    09:00 +28°C° 0 mm 1 mps 759 mmHg 73%
    10:00 +30°C° 0 mm 2 mps 760 mmHg 65%
    11:00 +30°C° 0 mm 2 mps 759 mmHg 61%
    12:00 +31°C° 0 mm 2 mps 759 mmHg 58%
    13:00 +32°C° 0 mm 2 mps 758 mmHg 54%
    14:00 +31°C° 0 mm 2 mps 758 mmHg 58%
    15:00 +31°C° 0 mm 2 mps 758 mmHg 61%
    16:00 +30°C° 0 mm 2 mps 757 mmHg 64%
    17:00 +29°C° 0.1 mm 2 mps 758 mmHg 71%
    18:00 +27°C° 0.1 mm 3 mps 758 mmHg 77%
    19:00 +26°C° 0.1 mm 3 mps 759 mmHg 84%
    20:00 +25°C° 0.1 mm 2 mps 759 mmHg 84%
    21:00 +25°C° 0.1 mm 2 mps 759 mmHg 85%
    22:00 +25°C° 0.1 mm 2 mps 759 mmHg 86%
    23:00 +25°C° 0 mm 1 mps 759 mmHg 87%

    Day after tomorrow, 23 November, Thursday

    Time Temperature Precipitation Wind Pressure Humidity
    00:00 +24°C° 0 mm 1 mps 759 mmHg 88%
    01:00 +22°C° 0 mm 0 mps 758 mmHg 90%
    02:00 +22°C° 0 mm 0 mps 758 mmHg 90%
    03:00 +21°C° 0 mm 0 mps 758 mmHg 91%
    04:00 +21°C° 0 mm 0 mps 758 mmHg 91%
    05:00 +23°C° 0 mm 1 mps 758 mmHg 92%
    06:00 +23°C° 0 mm 1 mps 758 mmHg 92%
    07:00 +23°C° 0 mm 1 mps 758 mmHg 93%
    08:00 +25°C° 0 mm 1 mps 759 mmHg 83%
    09:00 +27°C° 0 mm 1 mps 759 mmHg 74%
    10:00 +30°C° 0 mm 1 mps 759 mmHg 64%
    11:00 +30°C° 0 mm 1 mps 759 mmHg 59%
    12:00 +31°C° 0 mm 2 mps 758 mmHg 54%
    13:00 +32°C° 0 mm 2 mps 758 mmHg 49%
    14:00 +32°C° 0 mm 2 mps 757 mmHg 51%
    15:00 +31°C° 0 mm 3 mps 757 mmHg 53%
    16:00 +30°C° 0 mm 3 mps 757 mmHg 55%
    17:00 +29°C° 0 mm 3 mps 757 mmHg 61%
    18:00 +27°C° 0 mm 3 mps 757 mmHg 67%
    19:00 +25°C° 0 mm 3 mps 758 mmHg 72%
    20:00 +25°C° 0 mm 3 mps 758 mmHg 75%
    21:00 +25°C° 0 mm 3 mps 758 mmHg 78%
    22:00 +24°C° 0 mm 3 mps 759 mmHg 81%
    23:00 +24°C° 0.1 mm 3 mps 759 mmHg 83%

    24 November, Friday

    Time Temperature Precipitation Wind Pressure Humidity
    00:00 +24°C° 0.1 mm 3 mps 758 mmHg 85%
    01:00 +22°C° 0.1 mm 3 mps 758 mmHg 87%
    02:00 +22°C° 0 mm 3 mps 758 mmHg 87%
    03:00 +22°C° 0 mm 3 mps 758 mmHg 88%
    04:00 +22°C° 0 mm 3 mps 758 mmHg 89%
    05:00 +23°C° 0.1 mm 2 mps 758 mmHg 89%
    06:00 +21°C° 0.1 mm 2 mps 758 mmHg 90%
    07:00 +21°C° 0.1 mm 2 mps 759 mmHg 90%
    08:00 +24°C° 0.1 mm 3 mps 759 mmHg 81%
    09:00 +26°C° 0.1 mm 3 mps 759 mmHg 71%
    10:00 +28°C° 0.1 mm 3 mps 760 mmHg 62%
    11:00 +29°C° 0 mm 3 mps 759 mmHg 58%
    12:00 +30°C° 0 mm 3 mps 759 mmHg 54%
    13:00 +31°C° 0 mm 3 mps 758 mmHg 50%
    14:00 +30°C° 0.1 mm 3 mps 758 mmHg 54%
    15:00 +29°C° 0.1 mm 3 mps 758 mmHg 57%
    16:00 +29°C° 0.1 mm 3 mps 757 mmHg 61%
    17:00 +27°C° 0.1 mm 3 mps 758 mmHg 67%
    18:00 +26°C° 0.1 mm 3 mps 759 mmHg 74%
    19:00 +24°C° 0.1 mm 2 mps 759 mmHg 81%
    20:00 +24°C° 0 mm 2 mps 759 mmHg 81%
    21:00 +24°C° 0 mm 2 mps 760 mmHg 82%
    22:00 +23°C° 0 mm 2 mps 760 mmHg 82%
    23:00 +23°C° 0 mm 2 mps 760 mmHg 83%

    25 November, Saturday

    Time Temperature Precipitation Wind Pressure Humidity
    00:00 +23°C° 0 mm 2 mps 760 mmHg 84%
    01:00 +23°C° 0 mm 2 mps 760 mmHg 85%
    02:00 +23°C° 0 mm 2 mps 759 mmHg 85%
    03:00 +21°C° 0 mm 2 mps 759 mmHg 86%
    04:00 +21°C° 0 mm 2 mps 759 mmHg 87%
    05:00 +21°C° 0.1 mm 2 mps 760 mmHg 87%
    06:00 +21°C° 0.1 mm 2 mps 760 mmHg 87%
    07:00 +21°C° 0.1 mm 2 mps 760 mmHg 88%
    08:00 +24°C° 0.1 mm 2 mps 761 mmHg 80%
    09:00 +26°C° 0.1 mm 2 mps 761 mmHg 71%
    10:00 +28°C° 0.1 mm 2 mps 761 mmHg 63%
    11:00 +28°C° 0 mm 2 mps 761 mmHg 60%
    12:00 +29°C° 0 mm 2 mps 761 mmHg 57%
    13:00 +30°C° 0 mm 2 mps 760 mmHg 53%
    14:00 +29°C° 0 mm 3 mps 760 mmHg 55%
    15:00 +29°C° 0 mm 3 mps 760 mmHg 57%
    16:00 +28°C° 0 mm 3 mps 759 mmHg 59%
    17:00 +27°C° 0 mm 3 mps 760 mmHg 64%
    18:00 +25°C° 0 mm 2 mps 760 mmHg 69%
    19:00 +24°C° 0 mm 2 mps 761 mmHg 74%
    20:00 +24°C° 0 mm 2 mps 761 mmHg 75%
    21:00 +24°C° 0 mm 2 mps 761 mmHg 77%
    22:00 +23°C° 0 mm 2 mps 761 mmHg 78%
    23:00 +23°C° 0 mm 2 mps 761 mmHg 79%

    26 November, Sunday

    Time Temperature Precipitation Wind Pressure Humidity
    00:00 +23°C° 0 mm 2 mps 761 mmHg 80%
    01:00 +23°C° 0 mm 2 mps 761 mmHg 81%
    02:00 +23°C° 0 mm 2 mps 761 mmHg 82%
    03:00 +23°C° 0 mm 2 mps 761 mmHg 82%
    04:00 +21°C° 0 mm 2 mps 761 mmHg 82%
    05:00 +21°C° 0 mm 2 mps 761 mmHg 82%
    06:00 +21°C° 0 mm 2 mps 761 mmHg 82%
    07:00 +21°C° 0 mm 3 mps 762 mmHg 81%
    08:00 +24°C° 0 mm 3 mps 762 mmHg 74%
    09:00 +26°C° 0 mm 3 mps 762 mmHg 67%
    10:00 +28°C° 0 mm 3 mps 762 mmHg 59%
    11:00 +28°C° 0 mm 4 mps 762 mmHg 59%
    12:00 +28°C° 0 mm 4 mps 761 mmHg 59%
    13:00 +28°C° 0 mm 4 mps 761 mmHg 59%
    14:00 +28°C° 0 mm 4 mps 761 mmHg 60%
    15:00 +27°C° 0 mm 4 mps 760 mmHg 62%
    16:00 +27°C° 0 mm 5 mps 760 mmHg 63%
    17:00 +26°C° 0 mm 4 mps 761 mmHg 65%
    18:00 +25°C° 0 mm 4 mps 761 mmHg 66%
    19:00 +23°C° 0 mm 4 mps 761 mmHg 67%
    20:00 +22°C° 0 mm 4 mps 761 mmHg 68%
    21:00 +22°C° 0 mm 4 mps 762 mmHg 69%
    22:00 +22°C° 0 mm 4 mps 762 mmHg 70%
    23:00 +22°C° 0.1 mm 4 mps 762 mmHg 70%
    Show more